This demonstration page uses our WeatherBlox Daily Observations layout. Learn more.

Left ArrowRight Arrow

34.16533, -84.80231

Hourly Observations for July 8, 2017

Temp ( °F °C ) Dew Point ( °F °C ) Humidity (%) Winds ( mph kmh ) Pressure ( in mb ) Visibility ( mi km ) Precip ( " mm )
12:53 am 00:53 Clear 71 21.7 70 21.1 96 96 Calm 29.96 1015 10 16 0.00 0.00
1:53 am 01:53 Clear 70 21.1 70 21.1 100 100 Calm 29.96 1015 10 16 0.00 0.00
2:53 am 02:53 Clear 70 21.1 70 21.1 100 100 Calm 29.98 1015 10 16 0.00 0.00
3:20 am 03:20 Mostly Cloudy 71 21.7 71 21.7 100 100 Calm 30.03 1017 10 16 0.00 0.00
3:53 am 03:53 Cloudy 71 21.7 71 21.7 100 100 Calm 29.98 1015 10 16 0.00 0.00
4:53 am 04:53 Mostly Cloudy 71 21.7 71 21.7 100 100 Calm 29.99 1016 10 16 0.00 0.00
5:53 am 05:53 Cloudy 72 22.2 71 21.7 97 97 Calm 30.00 1016 10 16 0.00 0.00
6:53 am 06:53 Cloudy 73 22.8 72 22.2 96 96 Calm 30.03 1017 10 16 0.00 0.00
7:53 am 07:53 Mostly Sunny 73 22.8 72 22.2 96 96 Calm 30.01 1016 10 16 0.00 0.00
8:53 am 08:53 Sunny 76 24.4 73 22.8 91 91 VRB 3 6 30.00 1016 10 16 0.00 0.00
9:53 am 09:53 Sunny 79 26.1 75 23.9 88 88 SW 3 6 30.00 1016 10 16 0.00 0.00
10:53 am 10:53 Sunny 81 27.2 75 23.9 82 82 VRB 5 7 30.00 1016 10 16 0.00 0.00
11:53 am 11:53 Sunny 84 28.9 76 24.4 77 77 Calm 30.00 1016 10 16 0.00 0.00
12:53 pm 12:53 Mostly Sunny 86 30 74 23.3 67 67 VRB 3 6 29.99 1016 10 16 0.00 0.00
1:53 pm 13:53 Mostly Sunny 87 30.6 74 23.3 65 65 Calm 29.98 1015 10 16 0.00 0.00
2:53 pm 14:53 Partly Cloudy 86 30 76 24.4 72 72 VRB 5 7 29.96 1015 10 16 0.03 0.76
3:53 pm 15:53 Sunny 88 31.1 73 22.8 61 61 VRB 6 9 29.95 1014 10 16 0.00 0.00
4:53 pm 16:53 Mostly Cloudy 85 29.4 74 23.3 70 70 VRB 3 6 29.95 1014 10 16 0.00 0.00
5:09 pm 17:09 Mostly Cloudy with Nearby Thunderstorms 85 29.4 75 23.9 72 72 VRB 3 6 29.97 1015 10 16 0.00 0.00
5:53 pm 17:53 Mostly Sunny 85 29.4 72 22.2 65 65 Calm 29.93 1014 10 16 0.00 0.00
6:53 pm 18:53 Mostly Sunny 83 28.3 75 23.9 77 77 SSW 3 6 29.94 1014 10 16 0.00 0.00
7:32 pm 19:32 Cloudy with Strong Thunderstorms 73 22.8 69 20.6 87 87 N 5 7 30.03 1017 2 2 0.15 3.81
7:39 pm 19:39 Cloudy with Strong Thunderstorms 70 21.1 70 21.1 100 100 E 10 17 30.03 1017 1 1 0.45 11.43
7:47 pm 19:47 Cloudy with Strong Thunderstorms 72 22 70 21 94 94 ESE 7 11 30.03 1017 1 2 0.53 13.46
7:51 pm 19:51 Cloudy with Thunderstorms 72 22 70 21 94 94 ESE 6 9 30.03 1017 3 5 0.53 13.46
7:53 pm 19:53 Cloudy with Thunderstorms 71 21.7 70 21.1 96 96 SE 7 11 29.99 1016 4 6 0.53 13.46
8:00 pm 20:00 Cloudy with Thunderstorms 71 21.7 71 21.7 100 100 SE 6 9 30.03 1017 10 16 0.00 0.03
8:06 pm 20:06 Mostly Cloudy with Nearby Thunderstorms 71 21.7 70 21.1 96 96 ESE 5 7 30.03 1017 10 16 0.00 0.03
8:18 pm 20:18 Partly Cloudy 72 22.2 71 21.7 97 97 Calm 30.03 1017 10 16 0.00 0.03
8:53 pm 20:53 Sunny 70 21.1 70 21.1 100 100 Calm 29.98 1015 10 16 0.00 0.03
9:53 pm 21:53 Clear 70 21.1 70 21.1 100 100 Calm 29.99 1016 10 16 0.00 0.00
10:53 pm 22:53 Clear 69 20.6 69 20.6 100 100 Calm 30.00 1016 9 14 0.00 0.00
11:53 pm 23:53 Mostly Clear 68 20 68 20 100 100 Calm 30.01 1016 8 13 0.00 0.00

Powered by AerisWeather